1502103600.29,56201,20.31,74316.3,7.89,8.71,8.69,0,*72
1502103601.47,56202,20.31,74318.8,7.93,9.25,9.25,0,*73
1502103602.65,56203,20.31,74318.0,7.89,9.33,9.33,0,*79
1502103603.89,56204,20.25,74312.8,7.93,9.85,9.85,0,*75
1502103605.15,56205,20.31,74318.5,7.95,9.53,9.53,0,*72
1502103606.33,56206,20.31,74320.3,7.97,9.29,9.21,0,*7B
1502103607.54,56207,20.31,74316.5,7.97,9.43,9.57,0,*77
1502103608.78,56208,20.25,74318.8,7.97,9.77,9.77,0,*7D
1502103610.03,56209,20.31,74316.3,7.99,9.77,9.77,0,*72
1502103611.22,56210,20.31,74316.0,8.01,10.17,10.17,0,*74
1502103612.46,56211,20.25,74316.8,8.05,10.19,10.27,0,*7C
1502103613.65,56212,20.31,74316.5,8.05,10.03,10.05,0,*74
1502103614.9,56213,20.31,74316.8,8.07,9.89,9.89,0,*71
1502103616.1,56214,20.31,74320.8,8.09,9.21,9.15,0,*7F
1502103617.34,56215,20.31,74316.8,8.07,8.97,8.89,0,*78
1502103618.52,56216,20.31,74316.5,8.09,8.83,8.79,0,*7F
1502103619.7,56217,20.31,74320.8,8.09,8.83,8.79,0,*7E
1502103620.91,56218,20.31,74316.8,8.09,8.89,8.83,0,*7E
1502103622.11,56219,20.31,74316.8,8.11,9.25,9.25,0,*7C
1502103623.32,56220,20.31,74316.8,8.11,9.47,9.47,0,*76
1502103624.54,56221,20.31,74316.5,8.15,9.57,9.49,0,*7C
1502103625.71,56222,20.31,74316.8,8.15,9.29,9.25,0,*7C
1502103626.94,56223,20.31,74316.0,8.15,9.57,9.57,0,*71
1502103628.12,56224,20.31,74316.0,8.19,9.33,9.43,0,*7D
1502103629.33,56225,20.31,74316.0,8.17,8.23,8.23,0,*75
1502103630.55,56226,20.31,74316.0,8.17,9.11,9.21,0,*75
1502103631.77,56227,20.31,74318.3,8.17,8.87,8.83,0,*73
1502103632.97,56228,20.31,74316.3,8.19,8.51,8.45,0,*73
1502103634.22,56229,20.31,74320.5,8.17,9.11,9.11,0,*79
1502103635.48,56230,20.31,74316.5,8.17,9.53,9.49,0,*7A
1502103636.68,56231,20.31,74318.0,8.19,9.89,9.95,0,*73
1502103637.93,56232,20.25,74314.3,8.21,10.09,10.19,0,*77
1502103639.15,56233,20.31,74318.0,8.23,10.13,10.19,0,*7F
1502103640.36,56234,20.31,74316.0,8.23,10.13,10.19,0,*78
1502103641.56,56235,20.31,74316.5,8.25,9.95,9.95,0,*75
1502103642.73,56236,20.31,74318.8,8.27,9.33,9.33,0,*74
1502103643.96,56237,20.31,74320.0,8.27,9.19,9.19,0,*75
1502103645.18,56238,20.31,74318.5,8.27,9.39,9.39,0,*7A
1502103646.4,56239,20.31,74316.0,8.27,9.39,9.39,0,*7B
1502103647.61,56240,20.31,74318.5,8.29,9.07,9.07,0,*7B
1502103648.85,56241,20.31,74318.3,8.29,9.07,9.01,0,*7C
1502103650.05,56242,20.31,74320.0,8.29,9.63,9.71,0,*7A
1502103651.24,56243,20.31,74318.5,8.31,10.09,10.13,0,*7A
1502103652.48,56244,20.31,74320.0,8.31,10.19,10.23,0,*7F
1502103653.65,56245,20.31,74318.8,8.31,9.67,9.67,0,*77
1502103654.88,56246,20.31,74316.8,8.35,10.17,10.23,0,*77
1502103656.12,56247,20.25,74316.5,8.33,10.13,10.19,0,*7D
1502103657.31,56248,20.31,74318.8,8.39,10.09,10.17,0,*7D
1502103658.51,56249,20.31,74316.0,8.35,10.33,10.33,0,*7F
1502103659.69,56250,20.31,74316.8,8.39,10.51,10.51,0,*7B
1502103660.95,56251,20.31,74316.0,8.41,10.71,10.75,0,*71
1502103662.19,56252,20.31,74316.8,8.47,10.61,10.69,0,*78
1502103663.42,56253,20.31,74316.0,8.47,10.61,10.69,0,*79
1502103664.66,56254,20.31,74320.5,8.49,10.71,10.75,0,*7C
1502103665.88,56255,20.31,74316.0,8.51,10.51,10.55,0,*74
1502103667.12,56256,20.31,74316.0,8.51,10.33,10.41,0,*76
1502103668.37,56257,20.25,74312.8,8.55,10.57,10.57,0,*76
1502103669.58,56258,20.31,74320.0,8.55,9.99,10.03,0,*42
1502103670.84,56259,20.31,74318.3,8.55,10.37,10.37,0,*78
1502103672.04,56260,20.31,74318.0,8.57,10.05,10.05,0,*70
1502103673.27,56261,20.31,74320.5,8.57,9.77,9.77,0,*71
1502103674.48,56262,20.31,74316.8,8.57,10.37,10.33,0,*76
1502103675.75,56263,20.31,74320.5,8.59,10.19,10.27,0,*70
1502103676.97,56264,20.31,74318.3,8.59,10.47,10.47,0,*7A
1502103678.2,56265,20.31,74318.5,8.63,10.55,10.61,0,*75
1502103679.44,56266,20.31,74316.8,8.65,10.61,10.65,0,*73
1502103680.63,56267,20.31,74318.5,8.65,10.05,9.99,0,*4B
1502103681.84,56268,20.31,74318.3,8.63,9.43,9.43,0,*7F
1502103683.05,56269,20.31,74318.3,8.63,9.43,9.43,0,*7E
1502103684.23,56270,20.31,74322.3,8.65,9.95,9.95,0,*70
1502103685.42,56271,20.31,74322.5,8.65,9.43,9.43,0,*71
1502103686.65,56272,20.31,74320.3,8.63,9.63,9.57,0,*73
1502103687.85,56273,20.31,74322.5,8.65,10.09,10.13,0,*78
1502103689.1,56274,20.31,74320.8,8.67,9.57,9.57,0,*76
1502103690.33,56275,20.31,74322.5,8.67,10.13,10.13,0,*77
1502103691.59,56276,20.31,74322.3,8.67,10.37,10.37,0,*74
1502103692.77,56277,20.31,74318.0,8.69,9.67,9.67,0,*7B
1502103694.01,56278,20.31,74318.5,8.69,8.89,8.89,0,*74
1502103695.19,56279,20.31,74320.5,8.69,9.71,9.71,0,*75
1502103696.42,56280,20.31,74322.0,8.69,9.57,9.61,0,*76
1502103697.62,56281,20.31,74322.5,8.71,9.25,9.25,0,*7B
1502103698.82,56282,20.31,74320.0,8.69,8.45,8.37,0,*74
1502103700.06,56283,20.31,74322.3,8.67,9.03,9.01,0,*7C
1502103701.25,56284,20.31,74318.0,8.69,10.03,10.03,0,*77
1502103702.5,56285,20.31,74320.8,8.69,10.27,10.23,0,*72
1502103703.74,56286,20.31,74320.0,8.71,9.61,9.61,0,*7C
1502103705.01,56287,20.31,74318.8,8.71,9.49,9.49,0,*7D
1502103706.22,56288,20.31,74322.3,8.71,10.03,10.05,0,*74
1502103707.46,56289,20.31,74318.5,8.71,9.75,9.81,0,*78
1502103708.63,56290,20.31,74318.3,8.73,8.69,8.61,0,*71
1502103709.86,56291,20.31,74316.8,8.71,7.79,7.61,0,*73
1502103711.06,56292,20.31,74316.8,8.71,7.51,7.41,0,*78
1502103712.27,56293,20.31,74316.5,8.67,7.55,7.45,0,*7E
1502103713.45,56294,20.31,74316.5,8.65,7.51,7.45,0,*7F
1502103714.65,56295,20.31,74316.3,8.65,6.83,6.73,0,*74
1502103715.91,56296,20.31,74318.3,8.63,7.15,7.19,0,*72
1502103717.16,56297,20.31,74318.8,8.59,8.93,8.93,0,*76
1502103718.39,56298,20.31,74316.5,8.59,8.71,8.61,0,*78
1502103719.65,56299,20.31,74322.5,8.59,8.59,8.59,0,*78
1502103720.9,56300,20.31,74322.5,8.59,8.71,8.71,0,*79
1502103722.13,56301,20.31,74324.8,8.59,8.93,8.87,0,*7D
1502103723.37,56302,20.31,74318.3,8.59,8.93,8.87,0,*7E
1502103724.62,56303,20.31,74324.0,8.59,9.39,9.39,0,*7A
1502103725.85,56304,20.31,74322.3,8.59,9.75,9.85,0,*72
1502103727.06,56305,20.31,74324.3,8.59,9.95,10.03,0,*4B
1502103728.25,56306,20.31,74320.0,8.65,10.55,10.55,0,*70
1502103729.46,56307,20.31,74322.3,8.65,10.41,10.43,0,*73
1502103730.7,56308,20.31,74320.8,8.65,10.61,10.61,0,*7E
1502103731.92,56309,20.31,74322.8,8.69,10.23,10.17,0,*74
1502103733.16,56310,20.31,74322.5,8.69,9.81,9.81,0,*7B
1502103734.36,56311,20.31,74322.0,8.69,10.17,10.17,0,*7A
1502103735.6,56312,20.31,74320.0,8.71,10.69,10.71,0,*79
1502103736.84,56313,20.31,74320.3,8.73,10.71,10.71,0,*73
1502103738.06,56314,20.31,74322.5,8.75,10.09,10.13,0,*79
1502103739.28,56315,20.31,74322.3,8.75,10.09,10.09,0,*73
1502103740.49,56316,20.31,74324.0,8.77,10.43,10.43,0,*72
1502103741.71,56317,20.31,74316.0,8.77,10.43,10.47,0,*77
1502103742.98,56318,20.31,74324.8,8.77,9.81,9.81,0,*7C
1502103744.2,56319,20.31,74322.8,8.79,9.71,9.81,0,*7C
1502103745.4,56320,20.31,74322.8,8.79,10.13,10.13,0,*79
1502103746.6,56321,20.31,74322.3,8.81,9.95,9.95,0,*7F
1502103747.81,56322,20.31,74324.0,8.79,9.81,9.75,0,*70
1502103749.02,56323,20.31,74320.0,8.79,9.85,9.91,0,*7F
1502103750.29,56324,20.31,74322.8,8.81,10.27,10.27,0,*7A
1502103751.51,56325,20.31,74318.8,8.81,10.05,10.13,0,*7C
1502103752.78,56326,20.31,74318.3,8.81,10.27,10.31,0,*7F
1502103753.98,56327,20.31,74318.8,8.85,9.95,9.95,0,*7D
1502103755.23,56328,20.31,74318.8,8.85,9.77,9.77,0,*72
1502103756.49,56329,20.31,74316.5,8.85,9.89,9.89,0,*73
1502103757.67,56330,20.31,74322.3,8.87,9.91,9.91,0,*79
1502103758.87,56331,20.31,74318.0,8.87,9.01,9.03,0,*7A
1502103760.08,56332,20.31,74318.8,8.85,9.07,9.07,0,*79
1502103761.31,56333,20.31,74316.5,8.85,9.75,9.77,0,*7A
1502103762.51,56334,20.31,74322.3,8.85,9.95,9.99,0,*73
1502103763.69,56335,20.31,74318.0,8.87,10.03,10.03,0,*7C
1502103764.87,56336,20.31,74318.8,8.87,9.47,9.47,0,*7F
1502103766.09,56337,20.31,74318.8,8.87,9.57,9.57,0,*7E
1502103767.27,56338,20.31,74320.0,8.87,9.25,9.25,0,*71
1502103768.49,56339,20.31,74318.3,8.87,9.89,9.89,0,*70
1502103769.71,56340,20.31,74318.3,8.89,10.09,10.03,0,*7A
1502103770.93,56341,20.31,74316.3,8.89,10.13,10.09,0,*7A
1502103772.16,56342,20.31,74322.0,8.89,10.37,10.47,0,*75
1502103773.4,56343,20.31,74322.8,8.89,9.91,9.81,0,*72
1502103774.66,56344,20.31,74318.5,8.89,10.23,10.19,0,*7D
1502103775.88,56345,20.31,74320.0,8.91,10.33,10.37,0,*78
1502103777.05,56346,20.31,74318.3,8.91,9.91,9.95,0,*7B
1502103778.29,56347,20.31,74318.3,8.91,9.81,9.81,0,*7E
1502103779.5,56348,20.31,74318.3,8.91,9.85,9.95,0,*70
1502103780.71,56349,20.31,74320.8,8.93,10.17,10.17,0,*72
1502103781.96,56350,20.31,74320.8,8.93,10.17,10.23,0,*7D
1502103783.21,56351,20.31,74318.5,8.93,9.57,9.57,0,*7B
1502103784.45,56352,20.31,74322.3,8.93,9.39,9.39,0,*78
1502103785.66,56353,20.31,74318.3,8.95,9.07,9.19,0,*70
1502103786.89,56354,20.31,74320.0,8.93,8.27,8.29,0,*70
1502103788.08,56355,20.31,74314.8,8.93,8.69,8.69,0,*7F
1502103789.32,56356,20.31,74318.3,8.89,9.47,9.53,0,*72
1502103790.5,56357,20.31,74318.0,8.91,10.03,10.17,0,*7A
1502103791.68,56358,20.31,74322.3,8.91,9.95,10.03,0,*47
1502103792.92,56359,20.31,74322.0,8.91,10.23,10.27,0,*75
1502103794.11,56360,20.31,74320.5,8.95,10.17,10.17,0,*7F
1502103795.35,56361,20.31,74314.5,8.95,10.27,10.27,0,*7E
1502103796.58,56362,20.31,74318.8,8.95,10.27,10.19,0,*70
1502103797.79,56363,20.31,74320.8,8.97,10.43,10.55,0,*79
1502103798.99,56364,20.31,74320.8,8.99,9.91,9.89,0,*7E
1502103800.24,56365,20.31,74322.0,8.97,9.35,9.35,0,*78
1502103801.43,56366,20.31,74320.5,8.99,8.75,8.69,0,*78
1502103802.66,56367,20.31,74320.3,8.97,8.33,8.23,0,*7B
1502103803.91,56368,20.31,74320.5,8.97,9.53,9.53,0,*75
1502103805.15,56369,20.31,74320.0,8.95,10.27,10.31,0,*71
1502103806.42,56370,20.31,74320.5,8.97,10.23,10.19,0,*75
1502103807.61,56371,20.31,74320.8,8.99,10.09,10.13,0,*78
1502103808.85,56372,20.31,74322.8,8.99,10.19,10.23,0,*79
1502103810.04,56373,20.31,74320.0,8.99,10.13,10.13,0,*71
1502103811.3,56374,20.31,74322.5,8.97,9.81,9.77,0,*71
1502103812.47,56375,20.31,74320.5,8.99,9.91,9.99,0,*7F
1502103813.69,56376,20.31,74322.3,9.01,10.13,10.03,0,*75
1502103814.95,56377,20.31,74322.8,9.01,9.01,9.01,0,*75
1502103816.16,56378,20.31,74326.3,9.01,9.67,9.67,0,*7A
1502103817.41,56379,20.31,74322.5,9.01,9.57,9.57,0,*7B
1502103818.64,56380,20.31,74326.0,9.01,9.07,9.15,0,*7E
1502103819.86,56381,20.31,74320.8,8.99,8.75,8.75,0,*7C
1502103821.08,56382,20.31,74322.3,8.97,9.03,8.97,0,*7D
1502103822.3,56383,20.31,74320.0,8.99,9.11,9.11,0,*7E
1502103823.5,56384,20.31,74324.0,8.97,9.71,9.71,0,*77
1502103824.72,56385,20.31,74320.0,8.99,9.57,9.57,0,*78
1502103825.9,56386,20.31,74324.3,8.99,9.67,9.67,0,*7B
1502103827.13,56387,20.31,74324.0,8.99,9.77,9.81,0,*73
1502103828.37,56388,20.31,74324.5,8.99,10.19,10.19,0,*75
1502103829.64,56389,20.31,74324.8,9.01,10.23,10.27,0,*70
1502103830.83,56390,20.31,74326.8,9.03,10.47,10.47,0,*7E
1502103832.0,56391,20.31,74326.0,9.03,10.43,10.43,0,*7F
1502103833.18,56392,20.31,74322.3,9.03,10.51,10.47,0,*7B
1502103834.39,56393,20.31,74324.3,9.03,10.57,10.51,0,*7B
1502103835.6,56394,20.31,74324.0,9.09,10.55,10.61,0,*77
1502103836.81,56395,20.31,74326.5,9.09,10.75,10.85,0,*7E
1502103838.02,56396,20.31,74324.0,9.09,10.89,10.95,0,*7F
1502103839.28,56397,20.31,74324.0,9.11,10.57,10.57,0,*7A
1502103840.47,56398,20.31,74326.3,9.13,9.91,10.05,0,*42
1502103841.69,56399,20.31,74324.0,9.13,10.33,10.37,0,*72
1502103842.9,56400,20.31,74326.8,9.13,10.61,10.69,0,*79
1502103844.11,56401,20.31,74326.0,9.15,10.93,10.93,0,*76
1502103845.36,56402,20.31,74326.5,9.17,11.07,11.07,0,*77
1502103846.6,56403,20.31,74326.5,9.17,11.07,11.07,0,*76
1502103847.84,56404,20.31,74326.3,9.19,11.07,11.17,0,*7E
1502103849.05,56405,20.31,74326.3,9.19,10.85,10.89,0,*72
1502103850.26,56406,20.31,74326.5,9.21,10.93,11.03,0,*7E
1502103851.47,56407,20.31,74320.8,9.23,10.55,10.55,0,*75
1502103852.67,56408,20.31,74324.0,9.21,10.13,10.05,0,*7F
1502103853.85,56409,20.31,74320.5,9.21,9.95,9.95,0,*79
1502103855.03,56410,20.31,74326.0,9.21,9.95,10.05,0,*40
1502103856.21,56411,20.31,74320.0,9.21,9.95,9.95,0,*70
1502103857.42,56412,20.31,74320.0,9.23,9.95,10.03,0,*46
1502103858.66,56413,20.31,74322.3,9.23,10.17,10.23,0,*77
1502103859.9,56414,20.31,74320.8,9.23,10.33,10.37,0,*73
1502103861.14,56415,20.31,74324.3,9.23,10.27,10.33,0,*73
1502103862.36,56416,20.31,74322.0,9.23,10.03,10.03,0,*75
1502103863.58,56417,20.31,74324.5,9.23,10.05,10.05,0,*74
1502103864.78,56418,20.31,74324.8,9.25,10.51,10.57,0,*7B
1502103866.0,56419,20.31,74322.5,9.25,10.85,11.03,0,*73
1502103867.24,56420,20.31,74328.0,9.25,11.23,11.23,0,*76
1502103868.48,56421,20.31,74320.3,9.27,11.51,11.61,0,*76
1502103869.74,56422,20.38,74328.8,9.31,11.07,11.07,0,*71
1502103870.96,56423,20.31,74324.5,9.33,10.99,11.09,0,*7A
1502103872.18,56424,20.31,74324.0,9.35,10.55,10.57,0,*71
1502103873.43,56425,20.31,74324.3,9.33,10.23,10.23,0,*74
1502103874.69,56426,20.31,74326.8,9.35,10.99,10.99,0,*71
1502103875.9,56427,20.31,74324.8,9.37,11.45,11.51,0,*77
1502103877.16,56428,20.31,74326.5,9.39,11.23,11.27,0,*77
1502103878.37,56429,20.31,74324.8,9.39,10.05,10.09,0,*7E
1502103879.61,56430,20.31,74320.8,9.37,10.19,10.19,0,*74
1502103880.84,56431,20.31,74324.3,9.39,10.51,10.57,0,*7D
1502103882.03,56432,20.31,74324.8,9.37,10.69,10.69,0,*76
1502103883.23,56433,20.31,74324.5,9.39,10.85,10.93,0,*7E
1502103884.49,56434,20.31,74320.0,9.39,11.27,11.37,0,*7F
1502103885.74,56435,20.31,74322.5,9.43,11.45,11.57,0,*71
1502103887.0,56436,20.31,74322.8,9.45,11.75,11.79,0,*7B
1502103888.25,56437,20.31,74326.5,9.45,11.45,11.55,0,*77
1502103889.49,56438,20.31,74322.5,9.47,10.83,10.83,0,*7B
1502103890.7,56439,20.31,74320.8,9.47,11.17,11.23,0,*7D
1502103891.96,56440,20.31,74320.5,9.49,10.95,11.07,0,*70
1502103893.17,56441,20.31,74320.8,9.53,10.85,10.85,0,*70
1502103894.38,56442,20.31,74320.5,9.53,10.85,10.93,0,*74
1502103895.62,56443,20.31,74320.5,9.49,10.93,11.03,0,*71
1502103896.88,56444,20.31,74324.5,9.53,10.65,10.75,0,*74
1502103898.09,56445,20.31,74322.0,9.53,9.99,10.09,0,*45
1502103899.34,56446,20.31,74320.8,9.53,9.53,9.49,0,*7C
1502103900.57,56447,20.31,74322.0,9.49,9.25,9.39,0,*70
1502103901.77,56448,20.31,74322.0,9.49,8.87,8.87,0,*72
1502103903.03,56449,20.31,74318.8,9.45,9.77,9.77,0,*7F
1502103904.25,56450,20.31,74320.8,9.47,10.69,10.71,0,*7C
1502103905.48,56451,20.31,74322.8,9.47,10.57,10.57,0,*74
1502103906.74,56452,20.31,74324.5,9.53,10.65,10.71,0,*77
1502103907.95,56453,20.31,74318.0,9.49,11.13,11.17,0,*7C
1502103909.22,56454,20.31,74322.3,9.53,11.37,11.37,0,*74
1502103910.46,56455,20.31,74322.5,9.53,11.07,11.17,0,*74
1502103911.72,56456,20.31,74322.0,9.53,11.27,11.31,0,*71
1502103912.93,56457,20.31,74320.3,9.55,11.31,11.21,0,*70
1502103914.16,56458,20.31,74322.8,9.57,10.47,10.37,0,*7B
1502103915.37,56459,20.31,74322.8,9.57,9.67,9.67,0,*7D
1502103916.59,56460,20.31,74322.5,9.55,8.93,8.89,0,*7E
1502103917.82,56461,20.31,74322.3,9.55,8.93,8.89,0,*7F
1502103919.04,56462,20.31,74322.0,9.55,9.89,9.89,0,*77
1502103920.24,56463,20.31,74320.5,9.53,9.99,9.99,0,*70
1502103921.46,56464,20.31,74322.3,9.53,10.17,10.17,0,*77
1502103922.72,56465,20.31,74320.0,9.53,10.95,10.99,0,*7A
1502103923.99,56466,20.31,74320.3,9.57,11.41,11.45,0,*75
1502103925.26,56467,20.31,74324.0,9.57,11.33,11.33,0,*70
1502103926.52,56468,20.31,74320.5,9.57,9.89,9.81,0,*77
1502103927.79,56469,20.31,74320.0,9.57,10.23,10.23,0,*7E
1502103929.05,56470,20.38,74326.8,9.57,10.65,10.65,0,*76
1502103930.29,56471,20.38,74324.8,9.59,11.03,11.07,0,*7D
1502103931.53,56472,20.31,74322.3,9.59,11.23,11.33,0,*7B
1502103932.72,56473,20.31,74326.3,9.59,11.55,11.65,0,*78
1502103933.93,56474,20.31,74326.8,9.59,11.65,11.57,0,*7D
1502103935.14,56475,20.31,74324.3,9.63,11.51,11.57,0,*72
1502103936.39,56476,20.31,74326.5,9.65,11.45,11.51,0,*74
1502103937.66,56477,20.31,74326.5,9.65,11.41,11.45,0,*74
1502103938.89,56478,20.31,74320.8,9.67,11.45,11.55,0,*7C
1502103940.16,56479,20.31,74326.3,9.69,11.37,11.45,0,*77
1502103941.38,56480,20.31,74324.3,9.69,11.47,11.55,0,*77
1502103942.61,56481,20.31,74322.5,9.69,11.65,11.67,0,*77
1502103943.82,56482,20.31,74324.8,9.71,11.51,11.57,0,*79
1502103945.03,56483,20.31,74320.5,9.71,11.79,11.81,0,*79
1502103946.29,56484,20.31,74322.3,9.73,11.95,12.05,0,*71
1502103947.53,56485,20.31,74322.0,9.77,12.17,12.19,0,*70
1502103948.74,56486,20.31,74326.3,9.79,12.29,12.39,0,*72
1502103950.0,56487,20.31,74326.8,9.81,11.79,11.75,0,*79
1502103951.24,56488,20.38,74324.5,9.81,10.79,10.69,0,*7B
1502103952.45,56489,20.31,74326.3,9.81,11.65,11.65,0,*7B
1502103953.68,56490,20.31,74326.0,9.83,11.67,11.71,0,*76
1502103954.94,56491,20.31,74324.3,9.85,11.67,11.71,0,*71
1502103956.2,56492,20.31,74322.8,9.85,11.37,11.41,0,*74
1502103957.41,56493,20.31,74324.3,9.85,11.17,11.17,0,*74
1502103958.65,56494,20.31,74324.8,9.87,11.27,11.31,0,*76
1502103959.84,56495,20.31,74326.3,9.87,11.51,11.55,0,*74
1502103961.02,56496,20.31,74324.8,9.87,11.65,11.65,0,*73
1502103962.26,56497,20.31,74326.5,9.89,11.95,11.99,0,*70
1502103963.48,56498,20.31,74324.0,9.91,11.95,12.03,0,*76
1502103964.71,56499,20.31,74326.0,9.91,11.75,11.75,0,*7B
1502103965.98,56500,20.31,74326.0,9.93,11.61,11.61,0,*78
1502103967.2,56501,20.31,74326.5,9.93,11.89,11.99,0,*78
1502103968.39,56502,20.31,74324.3,9.95,11.93,12.03,0,*76
1502103969.63,56503,20.31,74324.8,9.99,11.27,11.31,0,*76
1502103970.85,56504,20.31,74320.8,9.99,11.07,11.09,0,*78
1502103972.04,56505,20.31,74328.0,9.99,11.09,11.17,0,*78
1502103973.29,56506,20.31,74326.3,9.99,11.37,11.45,0,*71
1502103974.47,56507,20.31,74326.5,9.99,11.17,11.09,0,*7A
1502103975.71,56508,20.31,74324.8,9.99,10.95,10.95,0,*7A
1502103976.96,56509,20.31,74324.8,9.99,11.41,11.41,0,*7B
1502103978.18,56510,20.31,74326.3,9.99,11.13,11.23,0,*70
1502103979.41,56511,20.31,74326.0,10.01,10.57,10.55,0,*49
1502103980.6,56512,20.31,74326.5,9.99,11.17,11.17,0,*71
1502103981.81,56513,20.31,74328.3,9.99,11.65,11.71,0,*75
1502103983.07,56514,20.31,74328.3,10.01,12.05,12.13,0,*49
1502103984.31,56515,20.31,74326.8,10.01,11.85,11.95,0,*4E
1502103985.49,56516,20.31,74326.5,10.03,11.81,11.89,0,*46
1502103986.74,56517,20.31,74324.0,10.07,11.95,12.03,0,*47
1502103987.99,56518,20.31,74326.8,10.05,12.09,12.17,0,*49
1502103989.21,56519,20.31,74328.3,10.07,12.27,12.27,0,*45
1502103990.43,56520,20.38,74328.5,10.09,11.89,11.95,0,*4C
1502103991.67,56521,20.31,74326.5,10.09,11.23,11.31,0,*43
1502103992.94,56522,20.31,74324.0,10.07,10.75,10.75,0,*4D
1502103994.22,56523,20.31,74326.5,10.07,10.23,10.19,0,*45
1502103995.46,56524,20.31,74326.0,10.07,10.33,10.33,0,*4B
1502103996.73,56525,20.38,74326.5,10.07,10.95,10.99,0,*46
1502103998.0,56526,20.38,74328.3,10.07,11.31,11.37,0,*4F
1502103999.19,56527,20.31,74326.5,10.09,11.65,11.65,0,*46
1502104000.46,56528,20.31,74326.0,10.07,11.95,11.95,0,*47
1502104001.65,56529,20.31,74326.0,10.09,11.89,11.99,0,*49
1502104002.87,56530,20.31,74324.5,10.11,11.55,11.65,0,*4A
1502104004.12,56531,20.31,74326.5,10.13,11.23,11.23,0,*4A
1502104005.4,56532,20.31,74324.8,10.11,11.33,11.45,0,*4A
1502104006.65,56533,20.31,74320.5,10.11,11.65,11.57,0,*4B
1502104007.86,56534,20.31,74324.5,10.15,11.89,11.89,0,*49
1502104009.08,56535,20.31,74320.5,10.15,10.93,10.93,0,*48
1502104010.32,56536,20.31,74324.8,10.13,10.83,10.83,0,*4D
1502104011.56,56537,20.31,74324.5,10.13,11.27,11.33,0,*49
1502104012.75,56538,20.31,74324.5,10.13,11.89,11.89,0,*43
1502104014.01,56539,20.31,74326.0,10.15,12.13,12.13,0,*44
1502104015.23,56540,20.31,74324.8,10.17,11.21,11.27,0,*4E
1502104016.45,56541,20.31,74328.3,10.15,10.47,10.47,0,*4B
1502104017.68,56542,20.31,74326.5,10.15,10.17,10.17,0,*48
1502104018.94,56543,20.31,74326.5,10.15,10.61,10.61,0,*49
1502104020.21,56544,20.38,74328.8,10.15,10.83,10.83,0,*4E
1502104021.48,56545,20.31,74320.3,10.15,10.83,10.83,0,*4F
1502104022.75,56546,20.31,74324.0,10.15,11.07,11.07,0,*4C
1502104024.03,56547,20.31,74326.0,10.15,11.07,11.07,0,*4D
1502104025.28,56548,20.31,74324.8,10.15,11.03,11.13,0,*43
1502104026.52,56549,20.31,74326.5,10.15,10.47,10.41,0,*45
1502104027.74,56550,20.31,74326.3,10.15,10.85,10.85,0,*4B
1502104029.01,56551,20.31,74324.8,10.15,10.95,11.03,0,*44
1502104030.25,56552,20.31,74326.5,10.15,10.71,10.47,0,*4C
1502104031.49,56553,20.31,74324.3,10.15,9.47,9.49,0,*46
1502104032.72,56554,20.31,74324.3,10.15,8.69,8.71,0,*46
1502104033.94,56555,20.31,74324.5,10.11,9.47,9.43,0,*4E
1502104035.18,56556,20.31,74324.8,10.11,10.65,10.69,0,*45
1502104036.43,56557,20.31,74320.5,10.07,10.65,10.51,0,*48
1502104037.62,56558,20.31,74324.3,10.09,11.21,11.21,0,*4E
1502104038.85,56559,20.31,74320.8,10.11,11.09,11.09,0,*46
1502104040.1,56560,20.38,74324.5,10.11,10.69,10.65,0,*40
1502104041.38,56561,20.31,74324.0,10.11,10.79,10.79,0,*4D
1502104042.6,56562,20.31,74324.5,10.11,10.55,10.55,0,*4E
1502104043.81,56563,20.31,74326.3,10.11,10.89,10.89,0,*4F
1502104045.06,56564,20.31,74324.0,10.11,10.27,10.33,0,*4D
1502104046.29,56565,20.31,74322.5,10.11,10.17,10.13,0,*4D
1502104047.48,56566,20.31,74320.8,10.09,9.67,9.71,0,*44
1502104048.71,56567,20.31,74320.3,10.07,9.53,9.63,0,*4F
1502104049.94,56568,20.31,74324.8,10.09,9.89,9.89,0,*4D
1502104051.17,56569,20.31,74320.5,10.07,9.57,9.63,0,*45
1502104052.36,56570,20.31,74320.3,10.09,9.99,9.99,0,*44
1502104053.59,56571,20.31,74322.0,10.05,9.49,9.39,0,*4E
1502104054.83,56572,20.31,74324.3,10.05,9.53,9.53,0,*4A
1502104056.06,56573,20.38,74324.3,10.03,9.61,9.61,0,*4D
1502104057.26,56574,20.31,74322.8,10.03,9.25,9.35,0,*4B
1502104058.47,56575,20.31,74320.3,10.03,9.25,9.19,0,*44
1502104059.72,56576,20.31,74322.3,10.01,9.77,9.77,0,*4A
1502104060.95,56577,20.31,74322.3,10.01,10.05,10.05,0,*4B
1502104062.18,56578,20.31,74322.3,10.01,10.79,10.89,0,*4B
1502104063.43,56579,20.31,74318.3,10.03,11.33,11.33,0,*47
1502104064.65,56580,20.31,74322.8,10.03,11.51,11.61,0,*42
1502104065.9,56581,20.31,74320.3,10.05,11.71,11.79,0,*4E
1502104067.15,56582,20.31,74320.3,10.05,10.71,10.71,0,*45
1502104068.42,56583,20.31,74320.5,10.07,10.65,10.71,0,*43
1502104069.67,56584,20.38,74322.8,10.09,10.79,10.83,0,*4A
1502104070.89,56585,20.31,74322.0,10.09,10.37,10.47,0,*49
1502104072.14,56586,20.31,74320.3,10.07,11.07,11.09,0,*4D
1502104073.38,56587,20.31,74320.5,10.07,10.89,10.79,0,*4D
1502104074.58,56588,20.38,74322.3,10.09,11.09,11.09,0,*43
1502104075.84,56589,20.31,74316.5,10.09,11.41,11.45,0,*46
1502104077.09,56590,20.31,74322.0,10.09,11.57,11.75,0,*4A
1502104078.29,56591,20.31,74320.0,10.13,11.47,11.55,0,*43
1502104079.49,56592,20.31,74322.5,10.13,11.47,11.47,0,*43
1502104080.72,56593,20.38,74324.3,10.13,11.45,11.47,0,*40
1502104081.98,56594,20.31,74322.8,10.13,11.57,11.61,0,*40
1502104083.2,56595,20.31,74322.3,10.15,10.69,10.69,0,*42
1502104084.44,56596,20.31,74322.0,10.15,10.51,10.41,0,*40
1502104085.7,56597,20.31,74320.0,10.15,10.37,10.27,0,*41
1502104086.92,56598,20.31,74320.5,10.15,11.17,11.17,0,*4F
1502104088.11,56599,20.31,74320.5,10.17,11.85,11.85,0,*4C
1502104089.32,56600,20.31,74318.3,10.17,11.75,11.81,0,*44
1502104090.54,56601,20.31,74320.3,10.21,10.99,10.93,0,*41
1502104091.74,56602,20.38,74326.0,10.21,8.89,8.79,0,*47
1502104092.97,56603,20.31,74320.3,10.15,9.35,9.29,0,*43
1502104094.25,56604,20.38,74322.5,10.15,10.19,10.19,0,*49
1502104095.5,56605,20.31,74322.0,10.15,9.61,9.53,0,*49
1502104096.77,56606,20.31,74318.5,10.15,10.31,10.37,0,*4D
1502104097.98,56607,20.31,74322.0,10.13,10.51,10.61,0,*4F
1502104099.18,56608,20.31,74320.5,10.13,10.85,10.93,0,*44
1502104100.43,56609,20.31,74322.0,10.15,11.47,11.57,0,*45
1502104101.68,56610,20.31,74316.0,10.17,11.07,11.07,0,*4E
1502104102.88,56611,20.38,74322.0,10.15,9.95,9.91,0,*49
1502104104.12,56612,20.31,74320.8,10.17,8.97,9.01,0,*42
1502104105.38,56613,20.31,74318.5,10.15,7.73,7.69,0,*44
1502104106.62,56614,20.31,74322.8,10.11,7.09,6.87,0,*4B
1502104107.86,56615,20.31,74322.5,10.07,8.89,8.87,0,*44
1502104109.06,56616,20.31,74320.3,10.07,9.63,9.63,0,*49
1502104110.27,56617,20.31,74320.3,10.03,9.81,9.75,0,*47
1502104111.49,56618,20.31,74322.0,10.03,10.19,10.09,0,*42
1502104112.74,56619,20.31,74320.0,10.05,10.37,10.41,0,*45
1502104113.94,56620,20.31,74322.0,10.05,10.93,10.93,0,*4E
1502104115.2,56621,20.31,74322.5,10.07,10.33,10.23,0,*4C
1502104116.43,56622,20.31,74320.5,10.07,10.13,10.13,0,*4E
1502104117.65,56623,20.31,74318.0,10.07,11.09,11.17,0,*40
1502104118.91,56624,20.31,74318.5,10.07,11.55,11.61,0,*4F
1502104120.16,56625,20.31,74316.8,10.11,11.79,11.89,0,*41